• In Hungary
  • List of Countries
  • For 7 days
  • Water Temperature
  • Satellite Maps
  • Weather Map
  • News
  • Weather Widgets
  • user-avatar
    Login

    Hourly Weather Edva

    Today, 17 July, Tuesday

    Time Temperature Precipitation Wind Pressure Humidity
    00:00 +18°C° 0 mm 1 mps 745 mmHg 75%
    01:00 +18°C° 0 mm 1 mps 745 mmHg 76%
    02:00 +16°C° 0 mm 1 mps 745 mmHg 78%
    03:00 +16°C° 0 mm 1 mps 745 mmHg 75%
    04:00 +19°C° 0 mm 1 mps 746 mmHg 70%
    05:00 +20°C° 0 mm 1 mps 746 mmHg 65%
    06:00 +22°C° 0 mm 1 mps 746 mmHg 60%
    07:00 +23°C° 0 mm 1 mps 746 mmHg 55%
    08:00 +25°C° 0 mm 2 mps 746 mmHg 49%
    09:00 +27°C° 0 mm 2 mps 746 mmHg 44%
    10:00 +27°C° 0 mm 2 mps 746 mmHg 43%
    11:00 +28°C° 0 mm 3 mps 746 mmHg 42%
    12:00 +28°C° 0 mm 3 mps 746 mmHg 41%
    13:00 +28°C° 0 mm 3 mps 746 mmHg 42%
    14:00 +27°C° 0 mm 3 mps 746 mmHg 43%
    15:00 +27°C° 0 mm 3 mps 746 mmHg 44%
    16:00 +27°C° 0 mm 3 mps 746 mmHg 46%
    17:00 +26°C° 0 mm 3 mps 746 mmHg 47%
    18:00 +26°C° 0 mm 3 mps 747 mmHg 49%
    19:00 +24°C° 0 mm 3 mps 747 mmHg 55%
    20:00 +22°C° 0 mm 3 mps 747 mmHg 60%
    21:00 +20°C° 0 mm 3 mps 747 mmHg 66%
    22:00 +19°C° 0 mm 3 mps 747 mmHg 69%
    23:00 +18°C° 0 mm 3 mps 748 mmHg 72%

    Tomorrow, 18 July, Wednesday

    Time Temperature Precipitation Wind Pressure Humidity
    00:00 +17°C° 0 mm 3 mps 748 mmHg 74%
    01:00 +17°C° 0 mm 3 mps 748 mmHg 76%
    02:00 +16°C° 0 mm 3 mps 748 mmHg 78%
    03:00 +14°C° 0 mm 3 mps 749 mmHg 80%
    04:00 +16°C° 0 mm 3 mps 749 mmHg 78%
    05:00 +17°C° 0 mm 3 mps 749 mmHg 75%
    06:00 +17°C° 0 mm 3 mps 749 mmHg 72%
    07:00 +19°C° 0 mm 3 mps 749 mmHg 66%
    08:00 +20°C° 0 mm 3 mps 749 mmHg 60%
    09:00 +22°C° 0 mm 3 mps 749 mmHg 54%
    10:00 +23°C° 0 mm 4 mps 749 mmHg 50%
    11:00 +25°C° 0 mm 4 mps 749 mmHg 46%
    12:00 +26°C° 0 mm 4 mps 749 mmHg 41%
    13:00 +26°C° 0 mm 4 mps 749 mmHg 40%
    14:00 +27°C° 0 mm 4 mps 748 mmHg 39%
    15:00 +27°C° 0 mm 4 mps 748 mmHg 37%
    16:00 +27°C° 0 mm 4 mps 748 mmHg 39%
    17:00 +26°C° 0 mm 4 mps 748 mmHg 41%
    18:00 +26°C° 0 mm 3 mps 748 mmHg 42%
    19:00 +24°C° 0 mm 3 mps 748 mmHg 49%
    20:00 +21°C° 0 mm 3 mps 748 mmHg 56%
    21:00 +19°C° 0 mm 3 mps 748 mmHg 63%
    22:00 +18°C° 0 mm 3 mps 749 mmHg 64%
    23:00 +17°C° 0 mm 3 mps 749 mmHg 66%

    Day after tomorrow, 19 July, Thursday

    Time Temperature Precipitation Wind Pressure Humidity
    00:00 +17°C° 0 mm 3 mps 749 mmHg 68%
    01:00 +16°C° 0 mm 3 mps 749 mmHg 70%
    02:00 +14°C° 0 mm 3 mps 749 mmHg 72%
    03:00 +14°C° 0 mm 3 mps 749 mmHg 74%
    04:00 +16°C° 0 mm 3 mps 749 mmHg 69%
    05:00 +17°C° 0 mm 3 mps 749 mmHg 65%
    06:00 +18°C° 0 mm 3 mps 749 mmHg 61%
    07:00 +20°C° 0 mm 3 mps 750 mmHg 55%
    08:00 +22°C° 0 mm 3 mps 750 mmHg 48%
    09:00 +25°C° 0 mm 4 mps 750 mmHg 42%
    10:00 +26°C° 0 mm 4 mps 749 mmHg 39%
    11:00 +27°C° 0 mm 4 mps 749 mmHg 36%
    12:00 +29°C° 0 mm 4 mps 749 mmHg 34%
    13:00 +29°C° 0 mm 4 mps 749 mmHg 33%
    14:00 +29°C° 0 mm 4 mps 749 mmHg 32%
    15:00 +30°C° 0 mm 4 mps 749 mmHg 31%
    16:00 +29°C° 0 mm 3 mps 749 mmHg 34%
    17:00 +29°C° 0 mm 3 mps 749 mmHg 37%
    18:00 +28°C° 0 mm 2 mps 749 mmHg 40%
    19:00 +26°C° 0 mm 2 mps 749 mmHg 47%
    20:00 +24°C° 0 mm 2 mps 749 mmHg 55%
    21:00 +21°C° 0 mm 2 mps 749 mmHg 62%
    22:00 +20°C° 0 mm 2 mps 749 mmHg 65%
    23:00 +19°C° 0 mm 2 mps 749 mmHg 67%

    20 July, Friday

    Time Temperature Precipitation Wind Pressure Humidity
    00:00 +18°C° 0 mm 2 mps 749 mmHg 70%
    01:00 +18°C° 0 mm 2 mps 750 mmHg 73%
    02:00 +17°C° 0 mm 2 mps 750 mmHg 76%
    03:00 +16°C° 0 mm 2 mps 750 mmHg 80%
    04:00 +18°C° 0 mm 2 mps 750 mmHg 75%
    05:00 +19°C° 0 mm 2 mps 750 mmHg 69%
    06:00 +21°C° 0 mm 2 mps 750 mmHg 64%
    07:00 +24°C° 0 mm 3 mps 750 mmHg 57%
    08:00 +25°C° 0 mm 3 mps 750 mmHg 49%
    09:00 +27°C° 0 mm 4 mps 750 mmHg 41%
    10:00 +28°C° 0 mm 4 mps 750 mmHg 39%
    11:00 +29°C° 0 mm 4 mps 750 mmHg 37%
    12:00 +30°C° 0 mm 4 mps 750 mmHg 35%
    13:00 +30°C° 0 mm 4 mps 750 mmHg 34%
    14:00 +30°C° 0 mm 3 mps 750 mmHg 34%
    15:00 +30°C° 0 mm 3 mps 750 mmHg 33%
    16:00 +30°C° 0 mm 3 mps 749 mmHg 36%
    17:00 +29°C° 0 mm 3 mps 749 mmHg 38%
    18:00 +29°C° 0 mm 2 mps 749 mmHg 41%
    19:00 +27°C° 0 mm 2 mps 749 mmHg 48%
    20:00 +24°C° 0 mm 2 mps 749 mmHg 56%
    21:00 +21°C° 0 mm 2 mps 749 mmHg 63%
    22:00 +20°C° 0 mm 2 mps 750 mmHg 67%
    23:00 +19°C° 0 mm 2 mps 750 mmHg 70%

    21 July, Saturday

    Time Temperature Precipitation Wind Pressure Humidity
    00:00 +18°C° 0 mm 2 mps 750 mmHg 73%
    01:00 +18°C° 0 mm 2 mps 750 mmHg 74%
    02:00 +17°C° 0 mm 2 mps 750 mmHg 76%
    03:00 +17°C° 0 mm 2 mps 750 mmHg 78%
    04:00 +18°C° 0 mm 2 mps 750 mmHg 73%
    05:00 +20°C° 0 mm 2 mps 750 mmHg 68%
    06:00 +21°C° 0 mm 2 mps 750 mmHg 62%
    07:00 +24°C° 0 mm 3 mps 750 mmHg 55%
    08:00 +26°C° 0 mm 3 mps 750 mmHg 47%
    09:00 +27°C° 0 mm 4 mps 750 mmHg 39%
    10:00 +28°C° 0 mm 4 mps 750 mmHg 38%
    11:00 +29°C° 0 mm 4 mps 750 mmHg 36%
    12:00 +29°C° 0 mm 4 mps 749 mmHg 34%
    13:00 +30°C° 0 mm 4 mps 749 mmHg 34%
    14:00 +30°C° 0 mm 4 mps 749 mmHg 33%
    15:00 +30°C° 0 mm 4 mps 749 mmHg 33%
    16:00 +29°C° 0 mm 4 mps 748 mmHg 35%
    17:00 +29°C° 0 mm 3 mps 748 mmHg 37%
    18:00 +28°C° 0 mm 3 mps 748 mmHg 39%
    19:00 +26°C° 0 mm 3 mps 748 mmHg 47%
    20:00 +24°C° 0 mm 2 mps 748 mmHg 54%
    21:00 +21°C° 0 mm 2 mps 748 mmHg 61%
    22:00 +20°C° 0 mm 2 mps 748 mmHg 64%
    23:00 +19°C° 0 mm 2 mps 748 mmHg 66%

    22 July, Sunday

    Time Temperature Precipitation Wind Pressure Humidity
    00:00 +18°C° 0 mm 2 mps 749 mmHg 68%
    01:00 +18°C° 0 mm 2 mps 749 mmHg 69%
    02:00 +17°C° 0 mm 2 mps 749 mmHg 70%
    03:00 +17°C° 0 mm 3 mps 749 mmHg 71%
    04:00 +18°C° 0 mm 3 mps 749 mmHg 68%
    05:00 +19°C° 0 mm 3 mps 749 mmHg 65%
    06:00 +19°C° 0 mm 3 mps 749 mmHg 61%
    07:00 +21°C° 0 mm 3 mps 749 mmHg 56%
    08:00 +23°C° 0 mm 4 mps 749 mmHg 51%
    09:00 +26°C° 0 mm 4 mps 749 mmHg 45%
    10:00 +27°C° 0 mm 4 mps 748 mmHg 41%
    11:00 +28°C° 0 mm 4 mps 748 mmHg 37%
    12:00 +29°C° 0 mm 4 mps 748 mmHg 33%
    13:00 +29°C° 0 mm 4 mps 748 mmHg 33%
    14:00 +30°C° 0 mm 4 mps 747 mmHg 33%
    15:00 +30°C° 0 mm 4 mps 747 mmHg 32%
    16:00 +29°C° 0 mm 4 mps 747 mmHg 34%
    17:00 +29°C° 0 mm 3 mps 747 mmHg 37%
    18:00 +28°C° 0 mm 3 mps 747 mmHg 39%
    19:00 +26°C° 0 mm 3 mps 747 mmHg 44%
    20:00 +24°C° 0 mm 3 mps 747 mmHg 50%
    21:00 +21°C° 0 mm 3 mps 747 mmHg 56%
    22:00 +20°C° 0 mm 3 mps 747 mmHg 58%
    23:00 +19°C° 0 mm 3 mps 747 mmHg 61%
    Show more